Showing default

GONETS D1 5, 24729

Orbit data source: Space-Track

GONETS D1 5, 24729 is a payload satellite owned by Gonets (CIS) in LEO that was launched on Fri, 14 Feb 1997 UTC via a TSIKLON-3 launch vehicle from the Plesetsk Missile And Space Complex (PKMTR). Payload-class satellites include a variety of spacecraft equipped with specific instruments for various scientific and technological missions. These include communications satellites like Starlink; space stations such as the ISS; scientific satellites like the Hubble; Earth observation satellites from companies like Planet Labs, Umbra, and HawkEye 360; GPS; miniature CubeSats for education and research; and military/defense satellites.

Loading next visibility...
Identifier
24729, 1997-006E
Orbit
LEO
Last TLE update
1 day ago
Origin
Manufacturer
NPO PM
Mission
Non-operational Civil Communications
Bus & Motor
STRELA-3, Unknown motor
Mass
225 kg wet, 225 kg dry
Launch date (UTC)
1997-02-14 (28 years ago)
Launch vehicle
TSIKLON-3
Launch site
Plesetsk Missile And Space Complex (PKMTR)
Object type
Payload
Rocket body
Debris
Shape & HBR
Cyl + 1 Ant, 7 m
Radar Cross Section
1.798 m², Medium (>0.1 m² and < 1m²)

Expand to show TLE details & history

TLE from 1 day ago
0 GONETS D1 5
1 24729U 97006E   25128.51608668  .00000032  00000-0  11963-3 0  9992
2 24729  82.5957 140.4246 0005625  90.6000  26.8378 12.62974297301362
Epoch: 2025-05-08T12:23Z
Definitive object data (Epoch: 2025-05-08T12:23:09.889Z)
Latitude
61.71388°
Longitude
-105.85618°
Altitude
1,417.307 km
Speed
7.159 km/s
True Right ascension
20h 26m 04s
True Declination
61° 34' 56"
Sunlit
Object was in daylight at TLE epoch
Visualization TLE readout
Latitude
-5.56248°
Longitude
86.63687°
Altitude
1,414.591 km
Speed
7.153 km/s
Apparent Right ascension
09h 45m 08s
Apparent Declination
-21° 06' 20"
Sunlit
Object is in daylight
Visualization observer readout
Local Sidereal Time
22:31:24
Azimuth
31.078° NE
Elevation
-68.759°
Doppler factor
1
Orbital elements
Apogee altitude
1,412.391 km
Perigee altitude
1,403.631 km
Semi-major axis
7,786.148 km
Eccentricity
0.0005625
Inclination
82.5957°
RAAN
140.4246°
Arg. of periapsis
90.6°
True anomaly
26.86692°
Mean anomaly
26.8378°
Eccentric anomaly
26.85236°
Mean motion
3.15907 °/min
BSTAR
0.00011963
Orbital period
113.96 mins
Loading maneuver chart data...
Loading SW <> Apogee altitude chart data...
Loading historical data...
Loading historical data...
Loading historical data...
Loading historical data...
Loading historical data...
Loading historical data...
Loading historical data...

GONETS D1 5 Visibility forecast

Observer location: undefined°, undefined°

Span
Click to sort rows by Start time (UTC) header in descending order
Start Az.
Max El. time (UTC)
Max El. Az.
Max El.
End time (UTC)
End Az.
12 mins2025-05-10 00:00:16.119Z132.229° SE2025-05-10 00:06:16.119Z81.702° E24.214°2025-05-10 00:12:16.119Z32.209° NE
14 mins2025-05-10 01:54:16.119Z205.73° SW2025-05-10 02:00:16.119Z274.11° WNW41.098°2025-05-10 02:08:16.119Z0.297° NNE
14 mins2025-05-10 11:55:16.119Z4.751° NNE2025-05-10 12:01:16.119Z67.107° ENE39.388°2025-05-10 12:09:16.119Z153.753° SSE
11 mins2025-05-10 13:51:16.119Z322.195° NNW2025-05-10 13:56:16.119Z274.394° WNW26.179°2025-05-10 14:02:16.119Z223.501° SW
|